Regional Weather Roundup
Issued by NWS Mobile, AL

Home | Current Version | Previous Version | Text Only | Print | Product List | Glossary On
Versions: 1 2 3 4 5 6 7 8 9 10 11 12 13 14 15 16 17 18 19 20 21 22 23 24 25 26 27 28 29 30 31 32 33 34 35 36 37 38 39 40 41 42 43 44 45 46 47 48 49 50
000
ASUS44 KMOB 231312
RWRMOB
REGIONAL WEATHER ROUNDUP
NATIONAL WEATHER SERVICE MOBILE AL
800 AM CDT SUN APR 23 2017

NOTE: "FAIR" INDICATES FEW OR NO CLOUDS BELOW 12,000 FEET WITH NO
      SIGNIFICANT WEATHER AND/OR OBSTRUCTIONS TO VISIBILITY.

  * THESE STATIONS ARE PART OF THE UNIVERSITY OF SOUTH ALABAMA
    MESONET AND ARE NOT UNDER NWS OR FAA QUALITY CONTROL.

ALZ061>064-231400-
COASTAL ALABAMA

CITY           SKY/WX    TMP DP  RH WIND       PRES   REMARKS
MOBILE REG APT CLOUDY    61  56  83 NW10      29.88R
BROOKLEY FIELD PTSUNNY   64  61  90 NW13      29.88R
USA CAMPUS*      N/A     61  59  94 CALM      29.88R
DOG RIVER*     NOT AVBL


CITY           SKY/WX    TMP DP  RH WIND       PRES   REMARKS
GULF SHORES    CLOUDY    73  73 100 MISG      29.83R

$$

ALZ051>060-231400-
INTERIOR SOUTHWEST AND SOUTH CENTRAL ALABAMA

CITY           SKY/WX    TMP DP  RH WIND       PRES   REMARKS
GREENVILLE     CLOUDY    66  62  87 SW8       29.82F
EVERGREEN      CLOUDY    65  63  93 W7        29.84S
ATMORE*        NOT AVBL
ANDALUSIA/OPP    N/A     72  62  71 W8        29.83F
ANDALUSIA*       N/A     68  63  83 W5        29.84R
FLORALA APT    CLOUDY    69  63  81 CALM      29.85S
FLORALA*         N/A     70  64  83 CALM      30.49S

$$

FLZ001>006-231400-
WESTERN FLORIDA PANHANDLE

CITY           SKY/WX    TMP DP  RH WIND       PRES   REMARKS
PENSACOLA      CLOUDY    73  68  84 NW5       29.82S
NAS PENSACOLA  LGT RAIN  72  67  84 SW9G21    29.81F
MILTON         TSTM      66  65  96 NW8       29.84R FOG
WHTNG S FIELD  TSTM      69  67  93 NW8       29.84R FOG


CITY           SKY/WX    TMP DP  RH WIND       PRES   REMARKS
JAY*             N/A     64  64 100 W5        29.85S
DUKE FIELD     MOSUNNY   74  68  81 SW10      29.82S
CRESTVIEW      PTSUNNY   71  65  81 CALM      29.84S
VALPARAISO     NOT AVBL
DESTIN         MOSUNNY   78  74  87 SW8       29.83S

$$

MSZ076-079-231400-
INTERIOR SOUTHEAST MISSISSIPPI

CITY           SKY/WX    TMP DP  RH WIND       PRES   REMARKS
LEAKESVILLE*   NOT AVBL
AGRICOLA*        N/A     59  57  94 NW8       29.88

$$

MARINE OBSERVATIONS

STATION/POSITION TIME  TEMP    WIND        PRES    WAVE
                       AIR SEA DIR/SP/G            HT/PER
                 (UTC) (F)     (DEG/KT/KT) (MB)    (FT/S)
PASCAGOULA       1248   63     350/ 13/ 17 1011.4R
PETIT BOIS ISLND 1248   65     340/ 17/ 21 1012.0R
GRAND BAY        1145   63     330/ 13     1012.0R
KATRINA CUT      1230   66     340/ 20     1011.2R
CEDAR POINT      1230   66     350/ 14     1010.5R
E DAUPHIN ISLAND 1200   68     310/ 19/ 21 1010.4R
MIDDLE BAY LIGHT 1230   66     320/ 17     1010.2R
USCG MOBILE BAY  1248   63 78  320/  8/ 13 1012.0R
STATE DOCKS      1248   64 75              1011.4R
MEAHER PARK      1230   63     330/  9     1011.5R
FORT MORGAN      1248   66     330/ 19/ 21   N/A
12 S ORANGE BCH  1150   73 76  230/ 14/ 16 1009.8R   3/ 4
PENSACOLA BAY    1248   74 78  240/  9/ 17 1010.1R
64 S DAUPHIN ISL 1240   75 77  230/ 14/ 16 1011.0S
67 S FORT MORGAN 1230   74     250/ 14     1011.2R

$$

SELECTED LOCATIONS ACROSS THE REGION

CITY           SKY/WX    TMP DP  RH WIND       PRES   REMARKS
NEW ORLEANS    CLOUDY    64  58  80 NW12      29.93R
GULFPORT       CLOUDY    63  57  81 N13       29.89R
PASCAGOULA AP  CLOUDY    62  56  80 NW9       29.88R
PASCAGOULA*    NOT AVBL
HATTIESBURG    CLOUDY    58  54  86 NW13      29.91S
LAUREL         CLOUDY    55  52  88 NW6       29.93R
MERIDIAN       CLOUDY    55  53  93 NW9       29.92R
JACKSON        PTSUNNY   56  50  80 NW8       29.95S
MONTGOMERY     CLOUDY    67  62  84 W7        29.82S
TROY           PTSUNNY   67  64  90 W6        29.85R
ASHFORD*         N/A     68  63  83 W5        29.84R
DOTHAN         PTSUNNY   71  68  90 SW12      29.87S
PANAMA CITY    CLOUDY    74  67  78 S8        29.83F HAZE

$$




USA.gov is the U.S. government's official web portal to all federal, state and local government web resources and services.